Regional Weather Roundup
Issued by NWS

Home | Current Version | Previous Version | Graphics & Text | Print | Product List | Glossary On
Versions: 1 2 3 4 5 6 7 8 9 10 11 12 13 14 15 16 17 18 19 20 21 22 23 24 25 26 27 28 29 30 31 32 33 34 35 36 37 38 39 40 41 42 43 44 45 46 47 48 49 50
000
ASUS43 KMKX 191600
RWRWI

WISCONSIN REGIONAL WEATHER ROUNDUP
NATIONAL WEATHER SERVICE MILWAUKEE/SULLIVAN WI
1100 AM CDT SAT AUG 19 2017

NOTE: "FAIR" INDICATES FEW OR NO CLOUDS BELOW 12,000 FEET WITH NO
SIGNIFICANT WEATHER AND/OR OBSTRUCTIONS TO VISIBILITY.

WIZ001-002-006>008-014>016-023>028-191700-
NORTHWEST WISCONSIN

CITY           SKY/WX    TMP DP  RH WIND       PRES   REMARKS
SUPERIOR ARPT    N/A     72  64  77 SW3       29.90S
ASHLAND        SUNNY     74  63  68 SW8       29.90S
HAYWARD        SUNNY     71  61  70 SW5       29.94S
SIREN          SUNNY     72  62  70 W7        29.95R
CUMBERLAND     SUNNY     70  59  68 W8        29.96S
RICE LAKE      SUNNY     72  62  71 SW7       29.98S
CHETEK         SUNNY     72  62  71 CALM      29.96S
LADYSMITH      SUNNY     72  61  69 W3        29.98S
EAU CLAIRE     NOT AVBL
MENOMONIE      SUNNY     73  64  72 SW6       29.98R
NEW RICHMOND   SUNNY     71  61  69 SW6       29.98R
OSCEOLA        MOSUNNY   72  63  73 SW3       29.99S
$$

WIZ003>005-009-010-017-018-191700-
NORTH CENTRAL WISCONSIN

CITY           SKY/WX    TMP DP  RH WIND       PRES   REMARKS
MANITOWISH WTR SUNNY     71  63  76 W7        29.93S
ARBOR VITAE    SUNNY     72  62  71 W5        29.93S
WOODRUFF       SUNNY     72  62  71 W5        29.93S
RHINELANDER    SUNNY     73  60  63 W13G18    29.95S
EAGLE RIVER    SUNNY     71  58  64 W9        29.92F
LAND O LAKES   SUNNY     71  59  66 W7        29.93S
PHILLIPS       SUNNY     69  61  76 W7        29.95R
TOMAHAWK         N/A     71  58  65 W6        29.95S
MEDFORD        SUNNY     69  62  78 W8        29.97S
MERRILL        SUNNY     72  61  68 W7        29.95S
$$

WIZ029-030-035-036-043>047-191700-
CENTRAL WISCONSIN

CITY           SKY/WX    TMP DP  RH WIND       PRES   REMARKS
WAUSAU         SUNNY     73  59  61 W8        29.94S
MOSINEE        MOSUNNY   72  61  68 W10       29.97R
MARSHFIELD     SUNNY     73  61  65 W9        29.97R
STEVENS POINT  SUNNY     70  60  71 W9        29.97R
WAUPACA        SUNNY     76  60  56 W7        29.95S
WAUTOMA        SUNNY     75  62  64 W9        29.96S
WISC RAPIDS    SUNNY     75  63  66 W6        29.98R
CAMP DOUGLAS   NOT AVBL
$$

WIZ011>013-019>022-031-037>040-048>050-191700-
NORTHEAST WISCONSIN

CITY           SKY/WX    TMP DP  RH WIND       PRES   REMARKS
ANTIGO         SUNNY     70  60  70 W9G16     29.95S
SHAWANO        SUNNY     75  63  66 W6        29.92S
OCONTO         SUNNY     72  63  71 W7        29.90S
STURGEON BAY   SUNNY     70  63  78 W10       29.91S
GREEN BAY      SUNNY     75  66  73 W10       29.93R
MANITOWOC      MOSUNNY   72  63  73 W9        29.93S
APPLETON       SUNNY     73  59  60 W8        29.93S
CLINTONVILLE   SUNNY     72  59  64 W8        29.93S
OSHKOSH        SUNNY     73  63  70 VRB7      29.95R
$$

WIZ032>034-041-042-053>061-191700-
SOUTHWEST WISCONSIN

CITY           SKY/WX    TMP DP  RH WIND       PRES   REMARKS
LA CROSSE      SUNNY     73  61  65 SW5       29.98F
SPARTA         SUNNY     68  60  75 W6        29.99R
VIROQUA        SUNNY     71  64  76 W3        30.01R
BOSCOBEL       SUNNY     75  62  64 CALM      29.99S
PRAIRIE DU CHI SUNNY     67  66  96 CALM      29.99S
PLATTEVILLE    SUNNY     71  67  86 CALM      30.00S
$$

WIZ056-057-062-063-064-067-068-191700-
SOUTH CENTRAL WISCONSIN

CITY           SKY/WX    TMP DP  RH WIND       PRES   REMARKS
REEDSBURG      SUNNY     72  63  74 SW5       29.98R
BARABOO/DELLS  SUNNY     72  60  64 CALM      29.98R
LONE ROCK      SUNNY     74  65  73 CALM      29.98S
MINERAL POINT  SUNNY     73  64  73 CALM      30.00R
MADISON        MOSUNNY   74  63  68 CALM      29.98R
MIDDLETON      MOSUNNY   74  64  72 CALM      29.99R
WATERTOWN      PTSUNNY   69  65  89 CALM      29.98R
MONROE         SUNNY     70  63  78 CALM      29.99R
JANESVILLE     MOSUNNY   73  63  68 CALM      29.98R
$$

WIZ051-052-058>065-066-070>072-191700-
SOUTHEAST WISCONSIN

CITY           SKY/WX    TMP DP  RH WIND       PRES   REMARKS
MILWAUKEE      MOSUNNY   77  60  55 N3        29.96S
WAUKESHA       MOSUNNY   70  61  73 NW9G17    29.99R
MILWAUKEE/TIMM SUNNY     73  57  56 NW6       29.97S
RACINE         SUNNY     74  65  73 E6        29.98S
KENOSHA        SUNNY     75  60  59 W6        29.98R
FOND DU LAC    SUNNY     73  62  68 NW5       29.96R
SHEBOYGAN      SUNNY     73  66  78 W6        29.94S
WEST BEND      MOSUNNY   70  63  78 W5        29.96S
JUNEAU         SUNNY     70  64  80 NW6       29.97S
$$

LSZ147-162-191700-
LAKE SUPERIOR

STATION/POSITION TIME  TEMP    WIND        PRES    WAVE
                       AIR SEA DIR/SP/G            HT/PER
                 (UTC) (F)     (DEG/KT/KT) (MB)    (FT/S)
W MID LAKE BUOY  1450   60 59  240/ 12/ 14 1010.6R   2/ 4
DEVILS ISLAND    1500   62     240/ 16/ 18 1011.6R
SAXON HARBOR     1540   74     210/  5/  7 1011.9S
$$

LMZ867-665-643>646-191700-
LAKE MICHIGAN

STATION/POSITION TIME  TEMP    WIND        PRES    WAVE
                       AIR SEA DIR/SP/G            HT/PER
                 (UTC) (F)     (DEG/KT/KT) (MB)    (FT/S)
S GREEN BAY BUOY 1530   68 71  210/  8/ 12 1012.5F
N MID LAKE BUOY  1450   66 66  230/ 10/ 12 1011.9R   1/ 3
NORTHPORT PIER   1540   72     280/  4/  8 1011.9S
KEWAUNEE LAKESHO 1530   70     270/  5/  9 1012.2S
SHEBOYGAN LAKESH 1500   69     290/  8/ 10 1013.4R
PORT WASHINGTON  1540   75     310/  4/  8 1014.9S
ATWATER BUOY     1409   68 70   60/  2/  6 1014.3R
MILWAUKEE LAKESH 1530   70     160/  6/  7   N/A
S MID LAKE BUOY  1450   68 71  330/  4/  4 1014.2R   1/ 3
KENOSHA   LAKESH 1500   70     120/  4/  4 1014.6
$$

TC  - TEMPERATURE IN CELSIUS
VSB - VISIBILITY IN STATUTE MILES
WCI - WIND CHILL INDEX
HX  - HEAT INDEX





USA.gov is the U.S. government's official web portal to all federal, state and local government web resources and services.